DW9682 Weather Reports


Display with metric or nautical units.
time (UTC)temp
F
wind
direction
speed
MPH
gust
MPH
rain 1hr
in
rain 24hr
in
rain mn
in
humidity
%
barometer
mb
20260504110713 45 197 3.0 9.0 0.00 0.00 0.00 70 1008.8
20260504110351 45 195 4.0 9.0 0.00 0.00 0.00 70 1008.8
20260504100543 45 261 4.0 8.0 0.00 0.00 0.00 70 1008.6
20260504100436 45 176 3.0 8.0 0.00 0.00 0.00 70 1008.5
20260504100333 45 203 3.0 8.0 0.00 0.00 0.00 70 1008.5
20260504100227 45 178 3.0 8.0 0.00 0.00 0.00 70 1008.5
20260504100124 45 184 3.0 8.0 0.00 0.00 0.00 70 1008.5
20260504081718 46 167 0.0 3.0 0.00 0.00 0.00 76 1008.9
20260504081356 46 167 0.0 3.0 0.00 0.00 0.00 76 1008.9
20260504081253 46 167 0.0 3.0 0.00 0.00 0.00 76 1008.9
20260504081151 46 165 0.0 1.0 0.00 0.00 0.00 76 1008.9
20260504081047 46 165 0.0 1.0 0.00 0.00 0.00 76 1009.0
20260504080719 46 165 1.0 3.0 0.00 0.00 0.00 76 1009.0
20260504080349 47 176 1.0 11.0 0.00 0.00 0.00 76 1009.1
20260504080245 47 177 1.0 11.0 0.00 0.00 0.00 76 1009.1
20260504080141 47 196 3.0 11.0 0.00 0.00 0.00 75 1009.1
20260504060246 46 179 1.0 3.0 0.00 0.00 0.00 72 1009.2
20260504060142 46 177 1.0 3.0 0.00 0.00 0.00 72 1009.2
20260504050657 47 182 1.0 3.0 0.00 0.00 0.00 71 1009.4
20260504050553 47 182 0.0 3.0 0.00 0.00 0.00 71 1009.3
20260504050449 47 182 0.0 3.0 0.00 0.00 0.00 71 1009.3
20260504050347 47 182 0.0 3.0 0.00 0.00 0.00 71 1009.3
20260504050244 47 181 0.0 3.0 0.00 0.00 0.00 71 1009.3
20260504050138 47 182 1.0 0.0 0.00 0.00 0.00 71 1009.3
20260504045928 47 182 1.0 4.0 0.00 0.00 0.00 71 1009.4
20260504045824 47 182 1.0 4.0 0.00 0.00 0.00 71 1009.3
20260504045720 47 182 1.0 4.0 0.00 0.00 0.00 71 1009.4
20260504045614 47 182 1.0 4.0 0.00 0.00 0.00 71 1009.3
20260504045509 47 182 1.0 4.0 0.00 0.00 0.00 71 1009.3
20260504045406 47 180 1.0 4.0 0.00 0.00 0.00 71 1009.3
20260504045301 47 180 1.0 4.0 0.00 0.00 0.00 71 1009.3
20260504045154 47 180 1.0 4.0 0.00 0.00 0.00 70 1009.4
20260504045052 47 182 1.0 4.0 0.00 0.00 0.00 70 1009.4
20260504044949 47 182 1.0 3.0 0.00 0.00 0.00 70 1009.4
20260504044622 47 180 1.0 3.0 0.00 0.00 0.00 69 1009.5
20260504044518 47 180 1.0 3.0 0.00 0.00 0.00 69 1009.4
20260504044413 47 180 1.0 3.0 0.00 0.00 0.00 69 1009.5
20260504044311 47 180 1.0 3.0 0.00 0.00 0.00 69 1009.5
20260504044204 47 180 1.0 3.0 0.00 0.00 0.00 69 1009.5
20260504044056 47 180 1.0 3.0 0.00 0.00 0.00 69 1009.6
20260504043952 47 217 1.0 3.0 0.00 0.00 0.00 69 1009.6
20260504043848 47 217 1.0 3.0 0.00 0.00 0.00 69 1009.5
20260504043742 47 217 1.0 3.0 0.00 0.00 0.00 69 1009.6
20260504043638 47 220 1.0 3.0 0.00 0.00 0.00 68 1009.6
20260504043534 47 220 1.0 3.0 0.00 0.00 0.00 69 1009.6
20260504043429 47 172 1.0 3.0 0.00 0.00 0.00 68 1009.6
20260504043324 47 172 1.0 3.0 0.00 0.00 0.00 68 1009.6
20260504042738 47 173 1.0 6.0 0.00 0.00 0.00 68 1009.7
20260504042152 47 178 3.0 6.0 0.00 0.00 0.00 69 1009.7
20260504041828 47 223 3.0 6.0 0.00 0.00 0.00 69 1009.8
20260504041722 47 223 3.0 6.0 0.00 0.00 0.00 69 1009.8
20260504041617 47 171 3.0 6.0 0.00 0.00 0.00 69 1009.8
20260504041514 47 173 1.0 6.0 0.00 0.00 0.00 69 1009.9
20260504041408 47 170 1.0 6.0 0.00 0.00 0.00 69 1009.9
20260504041302 47 186 1.0 6.0 0.00 0.00 0.00 69 1009.9
20260504041200 47 211 1.0 6.0 0.00 0.00 0.00 69 1009.9
20260504041056 47 186 1.0 6.0 0.00 0.00 0.00 69 1009.9
20260504040954 47 187 1.0 6.0 0.00 0.00 0.00 69 1009.9
20260504040845 47 188 1.0 6.0 0.00 0.00 0.00 69 1009.9
20260504040740 47 190 1.0 6.0 0.00 0.00 0.00 69 1009.9
20260504040637 47 267 1.0 6.0 0.00 0.00 0.00 69 1009.9
20260504040530 47 194 1.0 6.0 0.00 0.00 0.00 69 1009.9
20260504040427 47 190 1.0 6.0 0.00 0.00 0.00 69 1009.9
20260504040325 47 190 1.0 6.0 0.00 0.00 0.00 69 1009.8
20260504040220 47 194 1.0 6.0 0.00 0.00 0.00 68 1009.8
20260504040117 47 198 1.0 6.0 0.00 0.00 0.00 67 1009.8
20260504035751 46 194 1.0 6.0 0.00 0.00 0.00 69 1009.8
20260504035648 46 194 1.0 6.0 0.00 0.00 0.00 69 1009.7
20260504035328 46 200 1.0 6.0 0.00 0.00 0.00 69 1009.7
20260504035002 46 202 1.0 6.0 0.00 0.00 0.00 69 1009.8
20260504034859 46 280 1.0 6.0 0.00 0.00 0.00 69 1009.8
20260504034754 46 281 1.0 6.0 0.00 0.00 0.00 69 1009.8
20260504034650 46 281 1.0 6.0 0.00 0.00 0.00 69 1009.8
20260504034546 46 297 3.0 6.0 0.00 0.00 0.00 69 1009.9
20260504034442 45 297 3.0 6.0 0.00 0.00 0.00 70 1009.8
20260504034114 45 254 1.0 6.0 0.00 0.00 0.00 71 1009.7
20260504034010 44 253 1.0 6.0 0.00 0.00 0.00 71 1009.7
20260504033905 44 257 1.0 6.0 0.00 0.00 0.00 72 1009.7
20260504033801 44 229 1.0 6.0 0.00 0.00 0.00 72 1009.7
20260504033656 44 245 1.0 6.0 0.00 0.00 0.00 72 1009.7
20260504033550 43 267 1.0 6.0 0.00 0.00 0.00 72 1009.7
20260504033446 43 263 1.0 6.0 0.00 0.00 0.00 72 1009.7
20260504033340 43 263 1.0 6.0 0.00 0.00 0.00 71 1009.7
20260504033237 43 296 0.0 6.0 0.00 0.00 0.00 71 1009.7
20260504033131 42 296 1.0 6.0 0.00 0.00 0.00 71 1009.6
20260504033026 42 296 1.0 6.0 0.00 0.00 0.00 70 1009.6
20260504032919 42 292 1.0 4.0 0.00 0.00 0.00 70 1009.7
20260504032555 42 227 0.0 6.0 0.00 0.00 0.00 70 1009.7
20260504032450 42 251 0.0 6.0 0.00 0.00 0.00 69 1009.6
20260504032123 41 250 0.0 6.0 0.00 0.00 0.00 69 1009.6
20260504032021 41 231 0.0 6.0 0.00 0.00 0.00 68 1009.6
20260504031914 41 249 0.0 3.0 0.00 0.00 0.00 68 1009.7
20260504031551 42 248 0.0 0.0 0.00 0.00 0.00 67 1009.6
20260504031449 41 248 0.0 4.0 0.00 0.00 0.00 67 1009.5
20260504031344 42 248 0.0 4.0 0.00 0.00 0.00 67 1009.5
20260504031237 42 248 0.0 4.0 0.00 0.00 0.00 66 1009.5
20260504031133 42 248 0.0 4.0 0.00 0.00 0.00 66 1009.7
20260504031030 42 248 0.0 0.0 0.00 0.00 0.00 66 1009.6
20260504030923 42 248 0.0 6.0 0.00 0.00 0.00 66 1009.5
20260504030815 42 248 0.0 6.0 0.00 0.00 0.00 65 1009.6
20260504030453 42 211 0.0 0.0 0.00 0.00 0.00 64 1009.5
20260504030128 42 211 0.0 0.0 0.00 0.00 0.00 63 1009.5
20260504030022 43 211 0.0 0.0 0.00 0.00 0.00 62 1009.5
20260504025918 43 211 0.0 0.0 0.00 0.00 0.00 63 1009.5
20260504025814 43 211 0.0 0.0 0.00 0.00 0.00 63 1009.5
20260504025706 43 211 0.0 0.0 0.00 0.00 0.00 64 1009.5
20260504025602 43 211 0.0 0.0 0.00 0.00 0.00 63 1009.6
20260504025456 44 211 0.0 0.0 0.00 0.00 0.00 62 1009.6
20260504025348 44 211 0.0 0.0 0.00 0.00 0.00 62 1009.5
20260504025242 44 211 0.0 0.0 0.00 0.00 0.00 62 1009.6
20260504025136 44 211 0.0 0.0 0.00 0.00 0.00 61 1009.6
20260504025031 44 211 0.0 0.0 0.00 0.00 0.00 61 1009.6
20260504024923 45 211 0.0 0.0 0.00 0.00 0.00 61 1009.5
20260504024819 45 211 0.0 3.0 0.00 0.00 0.00 62 1009.5
20260504024715 45 211 0.0 3.0 0.00 0.00 0.00 60 1009.5
20260504024611 45 211 0.0 3.0 0.00 0.00 0.00 60 1009.5
20260504024242 45 211 0.0 1.0 0.00 0.00 0.00 60 1009.5
20260504024137 45 211 0.0 0.0 0.00 0.00 0.00 60 1009.6
20260504024031 45 211 0.0 4.0 0.00 0.00 0.00 60 1009.5
20260504023925 46 211 0.0 4.0 0.00 0.00 0.00 60 1009.5
20260504023603 46 200 0.0 1.0 0.00 0.00 0.00 59 1009.5
20260504023458 46 200 1.0 1.0 0.00 0.00 0.00 58 1009.5
20260504023355 46 200 1.0 1.0 0.00 0.00 0.00 59 1009.5
20260504023252 46 200 1.0 1.0 0.00 0.00 0.00 58 1009.5
20260504023147 46 200 1.0 1.0 0.00 0.00 0.00 59 1009.5
20260504023041 46 200 1.0 0.0 0.00 0.00 0.00 59 1009.5
20260504022716 46 198 3.0 9.0 0.00 0.00 0.00 59 1009.5
20260504022612 46 193 3.0 9.0 0.00 0.00 0.00 59 1009.5
20260504022508 46 216 3.0 9.0 0.00 0.00 0.00 59 1009.6
20260504022407 46 232 3.0 9.0 0.00 0.00 0.00 59 1009.5
20260504022304 46 232 4.0 9.0 0.00 0.00 0.00 58 1009.6
20260504022159 46 231 4.0 9.0 0.00 0.00 0.00 58 1009.6
20260504022052 45 267 4.0 9.0 0.00 0.00 0.00 59 1009.5
20260504021950 45 288 4.0 9.0 0.00 0.00 0.00 59 1009.5
20260504021847 45 248 4.0 9.0 0.00 0.00 0.00 59 1009.6
20260504021739 45 249 4.0 9.0 0.00 0.00 0.00 59 1009.6
20260504021412 44 254 4.0 9.0 0.00 0.00 0.00 60 1009.6
20260504021305 44 285 3.0 8.0 0.00 0.00 0.00 60 1009.6
20260504020937 44 271 3.0 8.0 0.00 0.00 0.00 60 1009.6
20260504020830 43 271 1.0 8.0 0.00 0.00 0.00 61 1009.6
20260504020725 43 225 1.0 8.0 0.00 0.00 0.00 60 1009.6
20260504020359 43 192 0.0 8.0 0.00 0.00 0.00 61 1009.6
20260504020256 43 267 0.0 8.0 0.00 0.00 0.00 62 1009.6
20260504015932 43 221 0.0 3.0 0.00 0.00 0.00 62 1009.5
20260504015825 43 248 0.0 1.0 0.00 0.00 0.00 61 1009.6
20260504015719 43 248 0.0 1.0 0.00 0.00 0.00 62 1009.6
20260504015616 43 248 0.0 1.0 0.00 0.00 0.00 61 1009.6
20260504015510 43 248 0.0 1.0 0.00 0.00 0.00 61 1009.6
20260504015408 44 247 0.0 1.0 0.00 0.00 0.00 61 1009.7
20260504015301 44 247 0.0 1.0 0.00 0.00 0.00 60 1009.6
20260504015159 44 247 0.0 1.0 0.00 0.00 0.00 59 1009.6
20260504014838 44 247 0.0 3.0 0.00 0.00 0.00 59 1009.6
20260504014734 44 247 0.0 3.0 0.00 0.00 0.00 59 1009.7
20260504014632 44 247 0.0 1.0 0.00 0.00 0.00 59 1009.6
20260504014530 44 247 0.0 1.0 0.00 0.00 0.00 59 1009.6
20260504014207 44 246 0.0 1.0 0.00 0.00 0.00 58 1009.6
20260504014100 45 247 0.0 1.0 0.00 0.00 0.00 57 1009.6
20260504013954 45 247 0.0 0.0 0.00 0.00 0.00 57 1009.6
20260504013852 45 247 0.0 0.0 0.00 0.00 0.00 58 1009.6
20260504013748 45 247 0.0 3.0 0.00 0.00 0.00 57 1009.6
20260504013642 45 247 0.0 3.0 0.00 0.00 0.00 57 1009.7
20260504013538 45 246 0.0 3.0 0.00 0.00 0.00 57 1009.6
20260504013435 45 246 0.0 3.0 0.00 0.00 0.00 56 1009.6
20260504013328 45 247 0.0 0.0 0.00 0.00 0.00 55 1009.6
20260504013003 46 240 0.0 3.0 0.00 0.00 0.00 53 1009.6
20260504012857 46 240 0.0 3.0 0.00 0.00 0.00 53 1009.6
20260504012754 46 240 0.0 3.0 0.00 0.00 0.00 54 1009.6
20260504012646 46 240 0.0 3.0 0.00 0.00 0.00 54 1009.7
20260504012055 47 242 0.0 4.0 0.00 0.00 0.00 52 1009.6
20260504011952 48 242 0.0 4.0 0.00 0.00 0.00 51 1009.6
20260504011845 48 242 0.0 4.0 0.00 0.00 0.00 50 1009.5
20260504011741 48 242 0.0 4.0 0.00 0.00 0.00 50 1009.5
20260504011637 48 242 0.0 3.0 0.00 0.00 0.00 50 1009.5
20260504011530 48 242 0.0 3.0 0.00 0.00 0.00 50 1009.5
20260504011424 48 243 0.0 3.0 0.00 0.00 0.00 49 1009.5
20260504011320 49 244 0.0 3.0 0.00 0.00 0.00 49 1009.6
20260504010957 49 244 1.0 1.0 0.00 0.00 0.00 48 1009.4
20260504010852 49 244 1.0 0.0 0.00 0.00 0.00 47 1009.4
20260504010746 49 244 1.0 6.0 0.00 0.00 0.00 46 1009.4
20260504010426 50 244 3.0 8.0 0.00 0.00 0.00 43 1009.3
20260504010324 50 243 3.0 8.0 0.00 0.00 0.00 43 1009.4
20260504005957 50 244 3.0 8.0 0.00 0.00 0.00 42 1009.3
20260504005631 50 251 3.0 8.0 0.00 0.00 0.00 41 1009.2
20260504005523 50 251 3.0 8.0 0.00 0.00 0.00 41 1009.2
20260504005416 50 215 3.0 8.0 0.00 0.00 0.00 42 1009.2
20260504005312 50 254 3.0 8.0 0.00 0.00 0.00 41 1009.2
20260504005209 50 265 3.0 8.0 0.00 0.00 0.00 42 1009.3
20260504005106 50 266 3.0 8.0 0.00 0.00 0.00 42 1009.2
20260504005004 50 265 3.0 8.0 0.00 0.00 0.00 41 1009.2
20260504004857 50 265 3.0 8.0 0.00 0.00 0.00 41 1009.1
20260504004752 50 267 4.0 8.0 0.00 0.00 0.00 41 1009.1
20260504004649 50 313 3.0 8.0 0.00 0.00 0.00 41 1009.1
20260504004545 50 273 3.0 9.0 0.00 0.00 0.00 41 1009.1
20260504004223 51 290 4.0 9.0 0.00 0.00 0.00 40 1009.0
20260504004115 51 216 3.0 9.0 0.00 0.00 0.00 41 1009.0
20260504004009 51 282 3.0 9.0 0.00 0.00 0.00 40 1009.0
20260504003645 51 268 3.0 12.0 0.00 0.00 0.00 41 1009.1
20260504003542 51 288 3.0 12.0 0.00 0.00 0.00 40 1009.0
20260504003438 51 292 3.0 12.0 0.00 0.00 0.00 40 1009.0
20260504003110 51 296 3.0 12.0 0.00 0.00 0.00 40 1008.9
20260504003004 51 296 3.0 12.0 0.00 0.00 0.00 41 1009.0
20260504002633 51 298 3.0 13.0 0.00 0.00 0.00 41 1008.8
20260504002528 51 267 4.0 13.0 0.00 0.00 0.00 40 1008.9
20260504002421 51 221 3.0 13.0 0.00 0.00 0.00 40 1008.9
20260504002316 51 243 3.0 13.0 0.00 0.00 0.00 40 1008.9
20260504002210 51 54 3.0 13.0 0.00 0.00 0.00 40 1008.8
20260504002107 51 218 3.0 13.0 0.00 0.00 0.00 40 1008.8
20260504002004 51 203 3.0 13.0 0.00 0.00 0.00 40 1008.8
20260504001858 51 261 3.0 13.0 0.00 0.00 0.00 40 1008.8
20260504001531 51 248 3.0 13.0 0.00 0.00 0.00 40 1008.8
20260504001425 51 271 3.0 13.0 0.00 0.00 0.00 40 1008.7
20260504001316 52 273 4.0 13.0 0.00 0.00 0.00 40 1008.7
20260504001210 52 202 4.0 13.0 0.00 0.00 0.00 40 1008.7
20260504001107 52 201 4.0 13.0 0.00 0.00 0.00 40 1008.6
20260504001003 52 292 4.0 13.0 0.00 0.00 0.00 39 1008.6
20260504000857 51 289 4.0 13.0 0.00 0.00 0.00 39 1008.6
20260504000749 51 238 4.0 13.0 0.00 0.00 0.00 39 1008.7
20260504000644 51 281 3.0 13.0 0.00 0.00 0.00 40 1008.6
20260504000537 51 244 3.0 9.0 0.00 0.00 0.00 40 1008.5
20260504000434 51 215 4.0 9.0 0.00 0.00 0.00 40 1008.5
20260504000328 52 290 4.0 8.0 0.00 0.00 0.00 40 1008.5
20260504000226 52 255 3.0 8.0 0.00 0.00 0.00 40 1008.5
20260504000117 52 255 3.0 8.0 0.00 0.00 0.00 40 1008.4
20260503235754 52 288 3.0 8.0 0.00 0.00 0.00 40 1008.4
20260503235205 52 259 0.0 3.0 0.00 0.00 0.00 39 1008.4
20260503235058 52 259 0.0 3.0 0.00 0.00 0.00 38 1008.3
20260503234955 52 268 0.0 3.0 0.00 0.00 0.00 38 1008.3
20260503234849 52 271 1.0 3.0 0.00 0.00 0.00 38 1008.2
20260503234746 52 271 1.0 3.0 0.00 0.00 0.00 38 1008.3
20260503234642 52 271 1.0 0.0 0.00 0.00 0.00 39 1008.2
20260503234057 53 264 4.0 12.0 0.00 0.00 0.00 38 1008.1
20260503233951 53 263 4.0 12.0 0.00 0.00 0.00 38 1008.1
20260503233847 53 248 4.0 12.0 0.00 0.00 0.00 37 1008.1
20260503233743 53 302 4.0 12.0 0.00 0.00 0.00 37 1008.1
20260503233637 53 279 4.0 12.0 0.00 0.00 0.00 37 1008.1
20260503233534 53 234 5.0 12.0 0.00 0.00 0.00 37 1008.1
20260503233426 53 297 5.0 15.0 0.00 0.00 0.00 37 1008.1
20260503233323 53 299 5.0 15.0 0.00 0.00 0.00 37 1008.1
20260503232959 53 269 6.0 15.0 0.00 0.00 0.00 36 1008.1
20260503232853 53 287 6.0 15.0 0.00 0.00 0.00 37 1008.0
20260503232750 53 290 6.0 15.0 0.00 0.00 0.00 36 1008.0
20260503232422 53 290 6.0 16.0 0.00 0.00 0.00 37 1008.0
20260503232317 53 278 6.0 16.0 0.00 0.00 0.00 36 1008.0
20260503232211 54 239 6.0 16.0 0.00 0.00 0.00 36 1008.0
20260503232103 54 253 7.0 16.0 0.00 0.00 0.00 35 1008.0
20260503231956 54 288 7.0 16.0 0.00 0.00 0.00 35 1007.9
20260503231851 54 242 7.0 16.0 0.00 0.00 0.00 35 1007.9
20260503231745 54 322 7.0 16.0 0.00 0.00 0.00 35 1007.9
20260503231640 54 313 7.0 16.0 0.00 0.00 0.00 34 1007.8
20260503231535 54 294 7.0 16.0 0.00 0.00 0.00 34 1007.9
20260503231431 54 288 7.0 16.0 0.00 0.00 0.00 34 1007.8
20260503231327 54 323 7.0 16.0 0.00 0.00 0.00 34 1007.8
20260503231224 54 243 7.0 16.0 0.00 0.00 0.00 34 1007.6
20260503231122 54 234 6.0 16.0 0.00 0.00 0.00 34 1007.8
20260503231018 54 248 6.0 16.0 0.00 0.00 0.00 34 1007.8
20260503230218 55 257 6.0 13.0 0.00 0.00 0.00 33 1007.6
20260503230115 55 290 6.0 13.0 0.00 0.00 0.00 33 1007.6
20260503230011 55 230 5.0 13.0 0.00 0.00 0.00 32 1007.6
20260503225906 55 9 5.0 13.0 0.00 0.00 0.00 32 1007.7
20260503225802 55 260 5.0 13.0 0.00 0.00 0.00 31 1007.6
20260503225658 55 247 5.0 14.0 0.00 0.00 0.00 32 1007.5
20260503225552 55 237 5.0 14.0 0.00 0.00 0.00 31 1007.5
20260503225445 55 220 4.0 14.0 0.00 0.00 0.00 30 1007.6
20260503225340 55 261 4.0 14.0 0.00 0.00 0.00 30 1007.5
20260503225235 55 277 4.0 14.0 0.00 0.00 0.00 30 1007.5
20260503225129 55 305 4.0 14.0 0.00 0.00 0.00 31 1007.4
20260503225028 55 305 4.0 14.0 0.00 0.00 0.00 32 1007.4
20260503224923 55 302 4.0 14.0 0.00 0.00 0.00 29 1007.4
20260503224816 55 259 4.0 14.0 0.00 0.00 0.00 29 1007.6
20260503224454 55 58 5.0 14.0 0.00 0.00 0.00 28 1007.4
20260503224349 55 265 5.0 14.0 0.00 0.00 0.00 27 1007.4
20260503223802 56 284 5.0 14.0 0.00 0.00 0.00 28 1007.4
20260503223655 56 259 4.0 13.0 0.00 0.00 0.00 28 1007.3
20260503223552 56 345 4.0 12.0 0.00 0.00 0.00 28 1007.4
20260503223230 56 250 4.0 11.0 0.00 0.00 0.00 28 1007.3
20260503222905 56 275 4.0 11.0 0.00 0.00 0.00 29 1007.3
20260503222757 56 273 4.0 11.0 0.00 0.00 0.00 28 1007.2
20260503222650 56 250 4.0 15.0 0.00 0.00 0.00 29 1007.3
20260503222545 56 269 4.0 15.0 0.00 0.00 0.00 28 1007.3
20260503222440 57 276 4.0 15.0 0.00 0.00 0.00 27 1007.3
20260503222113 57 249 4.0 15.0 0.00 0.00 0.00 29 1007.4
20260503221746 57 127 6.0 15.0 0.00 0.00 0.00 29 1007.3
20260503221639 57 234 6.0 15.0 0.00 0.00 0.00 29 1007.3
20260503221537 57 226 7.0 15.0 0.00 0.00 0.00 29 1007.4
20260503221431 57 294 7.0 15.0 0.00 0.00 0.00 29 1007.3
20260503221327 57 254 7.0 15.0 0.00 0.00 0.00 30 1007.3
20260503221222 57 314 7.0 15.0 0.00 0.00 0.00 29 1007.3
20260503221116 57 314 7.0 15.0 0.00 0.00 0.00 29 1007.3
20260503221009 57 258 7.0 15.0 0.00 0.00 0.00 29 1007.3
20260503220901 57 267 6.0 15.0 0.00 0.00 0.00 29 1007.4
20260503220757 57 254 6.0 15.0 0.00 0.00 0.00 27 1007.4
20260503220650 57 265 6.0 13.0 0.00 0.00 0.00 29 1007.3
20260503220547 57 257 5.0 13.0 0.00 0.00 0.00 28 1007.3
20260503220439 57 259 5.0 12.0 0.00 0.00 0.00 29 1007.3
20260503220332 57 265 4.0 9.0 0.00 0.00 0.00 28 1007.3
20260503220226 57 259 4.0 9.0 0.00 0.00 0.00 29 1007.3
20260503220122 57 282 4.0 12.0 0.00 0.00 0.00 30 1007.2
20260503215540 57 323 4.0 12.0 0.00 0.00 0.00 33 1007.3
20260503215437 57 292 4.0 12.0 0.00 0.00 0.00 30 1007.2
20260503215333 57 286 4.0 12.0 0.00 0.00 0.00 32 1007.2
20260503215228 57 355 4.0 12.0 0.00 0.00 0.00 33 1007.2
20260503215126 57 272 4.0 12.0 0.00 0.00 0.00 32 1007.3
20260503215018 56 219 4.0 12.0 0.00 0.00 0.00 33 1007.3
20260503214913 56 263 5.0 12.0 0.00 0.00 0.00 33 1007.3
20260503214807 56 296 5.0 12.0 0.00 0.00 0.00 31 1007.2
20260503214700 56 281 4.0 12.0 0.00 0.00 0.00 31 1007.2
20260503214557 56 311 4.0 12.0 0.00 0.00 0.00 34 1007.2
20260503214454 56 306 4.0 12.0 0.00 0.00 0.00 32 1007.2
20260503214347 56 331 4.0 12.0 0.00 0.00 0.00 35 1007.2
20260503214243 56 284 4.0 12.0 0.00 0.00 0.00 32 1007.3
20260503214137 56 265 3.0 12.0 0.00 0.00 0.00 32 1007.3
20260503214034 56 322 3.0 9.0 0.00 0.00 0.00 34 1007.3
20260503213928 56 215 1.0 8.0 0.00 0.00 0.00 35 1007.3
20260503213823 56 263 1.0 8.0 0.00 0.00 0.00 35 1007.3
20260503213717 55 267 0.0 6.0 0.00 0.00 0.00 35 1007.2
20260503213611 55 273 1.0 6.0 0.00 0.00 0.00 35 1007.2
20260503213506 55 273 1.0 6.0 0.00 0.00 0.00 34 1007.3
20260503213403 55 271 0.0 6.0 0.00 0.00 0.00 34 1007.2
20260503213257 55 275 1.0 6.0 0.00 0.00 0.00 34 1007.3
20260503213151 55 277 1.0 6.0 0.00 0.00 0.00 35 1007.2
20260503212831 55 283 1.0 6.0 0.00 0.00 0.00 33 1007.3
20260503212729 55 283 3.0 6.0 0.00 0.00 0.00 34 1007.3
20260503212628 55 283 3.0 6.0 0.00 0.00 0.00 34 1007.3
20260503212521 55 275 3.0 6.0 0.00 0.00 0.00 33 1007.3
20260503212417 55 276 3.0 6.0 0.00 0.00 0.00 34 1007.3
20260503212313 56 275 3.0 6.0 0.00 0.00 0.00 35 1007.4
20260503211949 56 259 3.0 6.0 0.00 0.00 0.00 35 1007.4
20260503211847 55 265 3.0 6.0 0.00 0.00 0.00 36 1007.4
20260503211744 55 269 1.0 6.0 0.00 0.00 0.00 36 1007.3
20260503211639 55 0 1.0 6.0 0.00 0.00 0.00 34 1007.3
20260503211535 55 27 1.0 6.0 0.00 0.00 0.00 38 1007.2
20260503211432 55 69 1.0 4.0 0.00 0.00 0.00 35 1007.3
20260503211330 55 331 1.0 14.0 0.00 0.00 0.00 34 1007.4
20260503211225 55 323 1.0 14.0 0.00 0.00 0.00 36 1007.5
20260503210859 55 11 1.0 14.0 0.00 0.00 0.00 36 1007.4
20260503210756 55 333 3.0 14.0 0.00 0.00 0.00 40 1007.4
20260503210652 55 333 3.0 14.0 0.00 0.00 0.00 39 1007.3
20260503210547 55 331 3.0 14.0 0.00 0.00 0.00 34 1007.4
20260503210442 55 327 3.0 14.0 0.00 0.00 0.00 35 1007.4
20260503210335 55 342 4.0 14.0 0.00 0.00 0.00 35 1007.4
20260503210229 55 298 4.0 14.0 0.00 0.00 0.00 35 1007.5
20260503210124 55 259 4.0 14.0 0.00 0.00 0.00 35 1007.5
20260503210021 55 268 4.0 14.0 0.00 0.00 0.00 34 1007.5
20260503205914 55 292 4.0 14.0 0.00 0.00 0.00 36 1007.5
20260503205325 56 246 1.0 11.0 0.00 0.00 0.00 35 1007.6
20260503205220 56 264 1.0 8.0 0.00 0.00 0.00 37 1007.5
20260503205113 56 263 3.0 8.0 0.00 0.00 0.00 38 1007.5
20260503205010 56 263 3.0 8.0 0.00 0.00 0.00 33 1007.6
20260503204903 56 263 3.0 8.0 0.00 0.00 0.00 35 1007.6
20260503204759 56 300 4.0 8.0 0.00 0.00 0.00 35 1007.6
20260503204654 56 287 4.0 8.0 0.00 0.00 0.00 37 1007.6
20260503204549 56 285 4.0 8.0 0.00 0.00 0.00 37 1007.6
20260503204225 56 263 4.0 8.0 0.00 0.00 0.00 35 1007.6
20260503204118 56 315 4.0 8.0 0.00 0.00 0.00 36 1007.6
20260503203536 56 298 1.0 8.0 0.00 0.00 0.00 35 1007.7
20260503203434 56 327 1.0 6.0 0.00 0.00 0.00 37 1007.7
20260503203329 56 323 1.0 6.0 0.00 0.00 0.00 41 1007.8
20260503203222 56 306 1.0 6.0 0.00 0.00 0.00 36 1007.7
20260503202855 55 0 1.0 6.0 0.00 0.00 0.00 38 1007.8
20260503202752 55 5 3.0 6.0 0.00 0.00 0.00 40 1007.7
20260503202427 55 242 3.0 9.0 0.00 0.00 0.00 35 1007.7
20260503202323 55 242 3.0 9.0 0.00 0.00 0.00 36 1007.8
20260503202217 55 309 3.0 9.0 0.00 0.00 0.00 36 1007.9
20260503202111 55 315 3.0 9.0 0.00 0.00 0.00 35 1007.8
20260503202006 55 315 3.0 9.0 0.00 0.00 0.00 36 1007.8
20260503201900 55 0 3.0 9.0 0.00 0.00 0.00 39 1007.8
20260503201755 55 332 3.0 9.0 0.00 0.00 0.00 39 1007.9
20260503201653 54 332 3.0 9.0 0.00 0.00 0.00 40 1007.9
20260503200846 55 332 3.0 9.0 0.00 0.00 0.00 38 1008.0
20260503200517 55 307 4.0 9.0 0.00 0.00 0.00 37 1008.0
20260503200415 55 305 4.0 9.0 0.00 0.00 0.00 37 1008.1
20260503200048 55 355 3.0 9.0 0.00 0.00 0.00 41 1008.0
20260503195944 55 117 3.0 9.0 0.00 0.00 0.00 40 1008.0
20260503195840 55 259 3.0 9.0 0.00 0.00 0.00 41 1008.0
20260503195734 55 246 4.0 16.0 0.00 0.00 0.00 37 1008.0
20260503195627 55 269 3.0 16.0 0.00 0.00 0.00 41 1008.1
20260503195301 55 278 4.0 16.0 0.00 0.00 0.00 42 1008.1
20260503195158 55 351 4.0 16.0 0.00 0.00 0.00 39 1008.1
20260503195055 55 355 5.0 16.0 0.00 0.00 0.00 37 1008.1
20260503194953 55 355 6.0 16.0 0.00 0.00 0.00 38 1008.2
20260503194629 55 294 8.0 16.0 0.00 0.00 0.00 39 1008.2
20260503194304 54 261 9.0 16.0 0.00 0.00 0.00 37 1008.3
20260503194159 54 306 8.0 16.0 0.00 0.00 0.00 37 1008.4
20260503194053 54 264 8.0 16.0 0.00 0.00 0.00 38 1008.3
20260503193949 54 273 7.0 16.0 0.00 0.00 0.00 40 1008.3
20260503193845 54 233 6.0 16.0 0.00 0.00 0.00 40 1008.3
20260503193518 53 325 5.0 13.0 0.00 0.00 0.00 39 1008.4
20260503193416 53 263 5.0 13.0 0.00 0.00 0.00 40 1008.5
20260503193310 53 241 5.0 13.0 0.00 0.00 0.00 40 1008.5
20260503193208 53 290 5.0 13.0 0.00 0.00 0.00 44 1008.6
20260503193105 53 325 4.0 14.0 0.00 0.00 0.00 43 1008.5
20260503193000 52 5 4.0 14.0 0.00 0.00 0.00 41 1008.4
20260503192853 52 338 4.0 14.0 0.00 0.00 0.00 41 1008.4
20260503192749 52 265 4.0 14.0 0.00 0.00 0.00 39 1008.6
20260503192647 52 312 3.0 14.0 0.00 0.00 0.00 38 1008.6
20260503192543 52 327 4.0 14.0 0.00 0.00 0.00 39 1008.5
20260503192436 52 284 4.0 14.0 0.00 0.00 0.00 39 1008.6
20260503192331 52 333 3.0 14.0 0.00 0.00 0.00 39 1008.5
20260503192228 52 337 4.0 14.0 0.00 0.00 0.00 41 1008.6
20260503192122 52 288 4.0 14.0 0.00 0.00 0.00 40 1008.5
20260503192020 52 346 5.0 18.0 0.00 0.00 0.00 42 1008.6
20260503191913 52 321 5.0 18.0 0.00 0.00 0.00 41 1008.5
20260503191549 52 306 5.0 18.0 0.00 0.00 0.00 41 1008.6
20260503191443 52 261 5.0 18.0 0.00 0.00 0.00 41 1008.6
20260503191115 52 290 6.0 18.0 0.00 0.00 0.00 41 1008.6
20260503191008 52 294 6.0 18.0 0.00 0.00 0.00 40 1008.7
20260503190905 52 306 6.0 18.0 0.00 0.00 0.00 40 1008.7
20260503190759 52 342 7.0 18.0 0.00 0.00 0.00 41 1008.8
20260503190655 52 337 7.0 18.0 0.00 0.00 0.00 41 1008.8
20260503190553 52 285 7.0 18.0 0.00 0.00 0.00 39 1008.7
20260503190446 52 269 7.0 18.0 0.00 0.00 0.00 40 1008.8
20260503190340 52 269 7.0 18.0 0.00 0.00 0.00 39 1008.7
20260503190021 52 263 7.0 17.0 0.00 0.00 0.00 42 1008.8
20260503185917 52 230 7.0 17.0 0.00 0.00 0.00 41 1008.8
20260503185810 52 261 7.0 17.0 0.00 0.00 0.00 41 1008.9
20260503185445 52 258 7.0 17.0 0.00 0.00 0.00 41 1008.9
20260503185338 51 280 7.0 17.0 0.00 0.00 0.00 40 1008.9
20260503185233 51 263 6.0 17.0 0.00 0.00 0.00 42 1009.0
20260503185126 51 258 5.0 16.0 0.00 0.00 0.00 42 1009.0
20260503185020 51 276 5.0 16.0 0.00 0.00 0.00 40 1009.0
20260503184657 52 267 3.0 16.0 0.00 0.00 0.00 42 1009.0
20260503184552 52 298 3.0 16.0 0.00 0.00 0.00 41 1009.0
20260503184230 51 267 1.0 11.0 0.00 0.00 0.00 43 1008.9
20260503184128 51 0 1.0 11.0 0.00 0.00 0.00 46 1008.9
20260503184022 51 266 3.0 11.0 0.00 0.00 0.00 44 1008.9
20260503183914 51 266 3.0 11.0 0.00 0.00 0.00 43 1009.0
20260503183812 51 296 3.0 11.0 0.00 0.00 0.00 43 1009.0
20260503183706 51 297 4.0 12.0 0.00 0.00 0.00 43 1009.0
20260503183559 51 229 3.0 12.0 0.00 0.00 0.00 42 1009.1
20260503183452 51 344 3.0 12.0 0.00 0.00 0.00 45 1009.0
20260503183345 51 298 3.0 12.0 0.00 0.00 0.00 43 1009.0
20260503183238 51 324 3.0 12.0 0.00 0.00 0.00 45 1009.0
20260503182913 50 263 4.0 12.0 0.00 0.00 0.00 44 1009.0
20260503182810 50 309 4.0 12.0 0.00 0.00 0.00 45 1009.0
20260503182703 50 271 5.0 12.0 0.00 0.00 0.00 43 1009.1
20260503182557 50 269 5.0 12.0 0.00 0.00 0.00 44 1009.1
20260503182455 50 284 5.0 12.0 0.00 0.00 0.00 43 1009.0
20260503182351 50 283 6.0 12.0 0.00 0.00 0.00 43 1009.0
20260503182246 50 277 5.0 12.0 0.00 0.00 0.00 43 1009.1
20260503182144 51 245 5.0 12.0 0.00 0.00 0.00 43 1009.1
20260503181816 51 145 4.0 12.0 0.00 0.00 0.00 44 1009.1
20260503181711 51 297 3.0 9.0 0.00 0.00 0.00 45 1009.2
20260503181343 50 277 1.0 6.0 0.00 0.00 0.00 47 1009.2
20260503181239 50 326 0.0 6.0 0.00 0.00 0.00 44 1009.1
20260503181130 50 324 0.0 6.0 0.00 0.00 0.00 47 1009.2
20260503181028 50 326 0.0 6.0 0.00 0.00 0.00 47 1009.2
20260503180926 50 324 0.0 3.0 0.00 0.00 0.00 47 1009.2
20260503180824 50 323 1.0 9.0 0.00 0.00 0.00 45 1009.2
20260503180718 50 323 1.0 9.0 0.00 0.00 0.00 44 1009.2
20260503180612 50 326 1.0 9.0 0.00 0.00 0.00 45 1009.2
20260503180508 50 331 1.0 9.0 0.00 0.00 0.00 46 1009.3
20260503180139 50 345 3.0 9.0 0.00 0.00 0.00 47 1009.3
20260503175342 50 285 4.0 9.0 0.00 0.00 0.00 44 1009.4
20260503175237 50 278 3.0 9.0 0.00 0.00 0.00 45 1009.3
20260503175130 50 257 3.0 9.0 0.00 0.00 0.00 43 1009.3
20260503175027 50 273 3.0 9.0 0.00 0.00 0.00 43 1009.3
20260503174922 50 275 3.0 9.0 0.00 0.00 0.00 44 1009.4
20260503174818 50 304 3.0 11.0 0.00 0.00 0.00 44 1009.4
20260503174714 50 273 3.0 11.0 0.00 0.00 0.00 44 1009.3
20260503174612 50 316 3.0 11.0 0.00 0.00 0.00 46 1009.4
20260503174510 49 21 4.0 11.0 0.00 0.00 0.00 44 1009.3
20260503174404 49 22 4.0 11.0 0.00 0.00 0.00 46 1009.4
20260503174300 49 293 4.0 11.0 0.00 0.00 0.00 44 1009.5
20260503174153 49 263 4.0 11.0 0.00 0.00 0.00 45 1009.4
20260503174051 49 280 4.0 11.0 0.00 0.00 0.00 45 1009.4
20260503173723 49 298 4.0 13.0 0.00 0.00 0.00 45 1009.4
20260503173620 49 242 4.0 13.0 0.00 0.00 0.00 44 1009.5
20260503173512 49 26 4.0 13.0 0.00 0.00 0.00 44 1009.4
20260503173407 49 344 4.0 13.0 0.00 0.00 0.00 45 1009.4
20260503173041 49 287 5.0 13.0 0.00 0.00 0.00 45 1009.5
20260503172935 49 319 5.0 13.0 0.00 0.00 0.00 44 1009.5
20260503172831 49 286 5.0 13.0 0.00 0.00 0.00 45 1009.6
20260503172726 49 280 5.0 15.0 0.00 0.00 0.00 45 1009.5
20260503172357 49 309 7.0 15.0 0.00 0.00 0.00 43 1009.6
20260503172249 49 290 7.0 15.0 0.00 0.00 0.00 44 1009.6
20260503172144 49 222 7.0 15.0 0.00 0.00 0.00 45 1009.5
20260503172041 49 277 6.0 15.0 0.00 0.00 0.00 46 1009.5
20260503171936 49 306 7.0 15.0 0.00 0.00 0.00 43 1009.5
20260503171832 49 270 7.0 15.0 0.00 0.00 0.00 44 1009.4
20260503171725 49 245 7.0 15.0 0.00 0.00 0.00 44 1009.5
20260503171621 49 243 7.0 15.0 0.00 0.00 0.00 43 1009.4
20260503171514 49 254 6.0 15.0 0.00 0.00 0.00 44 1009.5
20260503171411 49 251 5.0 15.0 0.00 0.00 0.00 44 1009.5
20260503171308 49 245 6.0 15.0 0.00 0.00 0.00 44 1009.5
20260503170942 49 298 4.0 15.0 0.00 0.00 0.00 44 1009.5
20260503170619 49 320 3.0 11.0 0.00 0.00 0.00 43 1009.5
20260503170513 49 321 3.0 11.0 0.00 0.00 0.00 45 1009.5
20260503170147 49 326 0.0 4.0 0.00 0.00 0.00 45 1009.5
20260503160153 49 253 5.0 16.0 0.00 0.00 0.00 46 1009.6
20260503150950 49 274 6.0 19.0 0.00 0.00 0.00 43 1009.8
20260503150625 49 0 4.0 14.0 0.00 0.00 0.00 43 1009.8
20260503150518 49 317 4.0 14.0 0.00 0.00 0.00 43 1009.8
20260503150411 49 269 4.0 14.0 0.00 0.00 0.00 41 1009.9
20260503150306 49 263 3.0 14.0 0.00 0.00 0.00 41 1009.8
20260503150200 49 284 3.0 14.0 0.00 0.00 0.00 42 1009.9
20260503140249 48 336 4.0 9.0 0.00 0.00 0.00 50 1010.0
20260503140142 48 334 4.0 9.0 0.00 0.00 0.00 51 1010.1
20260503131403 45 273 3.0 8.0 0.00 0.00 0.00 62 1010.4
20260503131257 45 355 3.0 8.0 0.00 0.00 0.00 62 1010.4
20260503131153 45 355 3.0 9.0 0.00 0.00 0.00 61 1010.4
20260503130830 45 310 1.0 9.0 0.00 0.00 0.00 61 1010.4
20260503130724 45 43 1.0 9.0 0.00 0.00 0.00 61 1010.4
20260503130617 45 303 1.0 9.0 0.00 0.00 0.00 62 1010.4
20260503130514 45 305 0.0 9.0 0.00 0.00 0.00 64 1010.4
20260503130149 45 304 1.0 9.0 0.00 0.00 0.00 62 1010.3